Regional Weather Roundup
Issued by NWS

Home | Current Version | Previous Version | Graphics & Text | Print | Product List | Glossary On
Versions: 1 2 3 4 5 6 7 8 9 10 11 12 13 14 15 16 17 18 19 20 21 22 23 24 25 26 27 28 29 30 31 32 33 34 35 36 37 38 39 40 41 42 43 44 45
000
ASUS45 KSLC 012110
RWRUT

UTAH REGIONAL WEATHER ROUNDUP
NATIONAL WEATHER SERVICE SALT LAKE CITY UT
300 PM MDT WED OCT 01 2014

UTZ001>011-023>025-012200-

NORTHERN UTAH

CITY           SKY/WX    TMP DP  RH WIND       PRES   REMARKS
HILL AFB       MOSUNNY   54  36  51 NW12      30.10F
LOGAN          NOT AVBL
OGDEN          MOSUNNY   56  36  47 W9        30.10S
PROVO AIRPORT  PTSUNNY   54  36  50 NW16      30.10F
SALT LAKE CITY PTSUNNY   53  36  52 NW12      30.10S
VERNAL         MOSUNNY   54  35  48 N16G28    30.00R
WENDOVER       MOSUNNY   57  28  33 N5        30.13F
HEBER CITY     PTSUNNY   52  32  46 S5        30.08S
WEST JORDAN    CLOUDY    52  36  54 N8        30.11F

$$

UTZ012>022-026-027-012200-

SOUTHERN UTAH

CITY           SKY/WX    TMP DP  RH WIND       PRES   REMARKS
BRYCE CANYON   SUNNY     50  28  42 NW22G28   30.11S
CEDAR CITY     PTSUNNY   55  33  43 N14G22    30.10S
MILFORD        PTSUNNY   56  33  42 N9G20     30.11F
MOAB/CYNLANDS  MOSUNNY   60  45  57 W10       29.96F
PRICE          MOSUNNY   54  25  32 W25G35    30.03R
ST GEORGE      PTCLDY    73  37  27 N7        29.97S
KANAB            N/A     70  27  19 W10       30.01S

$$

REGIONAL REPORTS     COLORADO/ARIZONA

CITY           SKY/WX    TMP DP  RH WIND       PRES   REMARKS
CRAIG, CO      LGT RAIN  39  35  86 W7        30.05R WCI  34
GRAND JUNCTION PTSUNNY   55  43  63 SE5       29.97F
RIFLE          PTSUNNY   51  40  65 NW6       29.98F
MONTROSE       CLOUDY    50  43  77 SE8       30.01F
CORTEZ         PTSUNNY   60  41  49 VRB3      29.99F
PAGE, AZ       MOSUNNY   74  36  25 N8        29.92F
GRAND CANYON   MOSUNNY   62  35  36 VRB7      30.06F
KINGMAN        SUNNY     80  39  23 N16G25    29.93F
FLAGSTAFF      PTSUNNY   63  31  30 VRB6      30.06F

$$

REGIONAL REPORTS    NEVADA/IDAHO/WYOMING

CITY           SKY/WX    TMP DP  RH WIND       PRES   REMARKS
LAS VEGAS, NV  MOSUNNY   82  30  15 E12G22    29.87F
ELY            SUNNY     55  19  24 N13G18    30.15F
ELKO           MOSUNNY   57  25  29 VRB5      30.16F
POCATELLO, ID  RAIN      49  40  71 VRB6      30.10F
BURLEY         SUNNY     57  37  47 W13G23    30.11F
EVANSTON, WY   PTSUNNY   39  35  86 N8        30.10R WCI  33
ROCK SPRINGS   PTSUNNY   49  29  46 W21G28    30.01R

$$


USA.gov is the U.S. government's official web portal to all federal, state and local government web resources and services.